Regional Weather Roundup
Issued by NWS

Home | Current Version | Previous Version | Text Only | Print | Product List | Glossary Off
Versions: 1 2 3 4 5 6 7 8 9 10 11 12 13 14 15 16 17 18 19 20 21 22 23 24 25 26 27 28 29 30 31 32 33 34 35 36 37 38 39 40 41 42 43 44 45 46 47 48 49 50

000
ASUS43 KMKX 210400
RWRWI

WISCONSIN REGIONAL WEATHER ROUNDUP
NATIONAL WEATHER SERVICE MILWAUKEE/SULLIVAN WI
1000 PM CST SAT DEC 20 2014

NOTE: "FAIR" INDICATES FEW OR NO CLOUDS BELOW 12,000 FEET WITH NO
SIGNIFICANT WEATHER AND/OR OBSTRUCTIONS TO VISIBILITY.

WIZ001-002-006>008-014>016-023>028-210500-
NORTHWEST WISCONSIN

CITY           SKY/WX    TMP DP  RH WIND       PRES   REMARKS
SUPERIOR ARPT  CLOUDY    32  28  83 SW10      30.09S WCI  24
ASHLAND        CLOUDY    31  26  82 S8        30.11F WCI  23
HAYWARD        CLOUDY    30  25  81 S7        30.09F HAZE    WCI  23
SIREN          CLOUDY    31  27  85 S9G18     30.09F WCI  23
CUMBERLAND     CLOUDY    30  28  93 S9        30.10S FOG     WCI  22
RICE LAKE      CLOUDY    31  27  86 S10       30.13S FOG     WCI  22
CHETEK         CLOUDY    31  28  88 SE8       30.12S FOG     WCI  23
LADYSMITH      CLOUDY    31  28  90 SE6       30.13F FOG     WCI  25
EAU CLAIRE     CLOUDY    30  28  92 S8        30.13F FOG     WCI  22
MENOMONIE      CLOUDY    31  29  93 SE8       30.13S FOG     WCI  24
NEW RICHMOND   CLOUDY    31  28  90 S13G20    30.11S WCI  21
OSCEOLA        CLOUDY    32  30  93 S14       30.13S WCI  22
$$

WIZ003>005-009-010-017-018-210500-
NORTH CENTRAL WISCONSIN

CITY           SKY/WX    TMP DP  RH WIND       PRES   REMARKS
MANITOWISH WTR CLOUDY    27  26  96 S6        30.11S WCI  21
ARBOR VITAE    CLOUDY    29  26  89 S7        30.11F WCI  22
WOODRUFF       CLOUDY    29  26  89 S7        30.11F WCI  22
RHINELANDER    CLOUDY    26  24  92 S7        30.13F WCI  18
EAGLE RIVER    CLOUDY    27  26  97 S5        30.12F WCI  22
LAND O LAKES   CLOUDY    28  27  96 S5        30.13R WCI  23
PHILLIPS       CLOUDY    28  26  94 S7        30.11S FOG     WCI  20
TOMAHAWK       CLOUDY    27  25  90 CALM      30.14F FOG
MEDFORD        CLOUDY    28  26  94 S6        30.13F FOG     WCI  21
MERRILL        CLOUDY    28  26  89 S5        30.15S WCI  23
$$

WIZ029-030-035-036-043>047-210500-
CENTRAL WISCONSIN

CITY           SKY/WX    TMP DP  RH WIND       PRES   REMARKS
WAUSAU         CLOUDY    29  25  85 S5        30.14F WCI  24
MOSINEE        CLOUDY    28  28 100 SE6       30.16F WCI  22
MARSHFIELD     CLOUDY    29  25  85 S8        30.14F FOG     WCI  21
STEVENS POINT  CLOUDY    27  25  90 S5        30.18S WCI  22
WAUPACA        CLOUDY    30  27  89 SE3       30.21S FOG
WAUTOMA        NOT AVBL
WISC RAPIDS    CLOUDY    29  24  82 S3        30.18F
CAMP DOUGLAS   NOT AVBL
$$

WIZ011>013-019>022-031-037>040-048>050-210500-
NORTHEAST WISCONSIN

CITY           SKY/WX    TMP DP  RH WIND       PRES   REMARKS
ANTIGO         CLOUDY    25  24  95 S7        30.15F FOG     WCI  17
SHAWANO        CLOUDY    30  26  83 CALM      30.21F
OCONTO         CLOUDY    28  27  96 CALM      30.22F
STURGEON BAY   CLOUDY    27  25  93 CALM      30.23S
GREEN BAY      CLOUDY    29  26  89 S3        30.22F FOG
MANITOWOC      NOT AVBL
APPLETON       CLOUDY    27  27 100 VRB3      30.21F FOG
CLINTONVILLE   CLOUDY    28  27  93 S3        30.21F FOG
OSHKOSH        CLOUDY    28  25  88 CALM      30.21F FOG
$$

WIZ032>034-041-042-053>061-210500-
SOUTHWEST WISCONSIN

CITY           SKY/WX    TMP DP  RH WIND       PRES   REMARKS
LA CROSSE      CLOUDY    33  28  81 S7        30.16F WCI  27
SPARTA         CLOUDY    31  27  84 S6        30.17F FOG     WCI  25
VIROQUA        CLOUDY    29  29 100 SE8       30.14F WCI  21
BOSCOBEL       LGT SNOW  32  27  81 CALM      30.19F
PRAIRIE DU CHI CLOUDY    32  28  87 E3        30.18F FOG
PLATTEVILLE    CLOUDY    31  28  90 CALM      30.19F
$$

WIZ056-057-062-063-064-067-068-210500-
SOUTH CENTRAL WISCONSIN

CITY           SKY/WX    TMP DP  RH WIND       PRES   REMARKS
REEDSBURG      CLOUDY    29  26  90 CALM      30.18F
BARABOO/DELLS  CLOUDY    29  26  87 S5        30.18F FOG     WCI  24
LONE ROCK      NOT AVBL
MINERAL POINT  CLOUDY    32  28  86 SE8       30.17S WCI  25
MADISON        CLOUDY    30  26  85 S7        30.20F WCI  23
MIDDLETON      CLOUDY    31  27  84 S6        30.20F WCI  26
WATERTOWN      CLOUDY    29  28  96 CALM      30.21F FOG
MONROE         CLOUDY    30  28  93 S6        30.19S WCI  24
JANESVILLE     CLOUDY    32  28  86 SE5       30.21F WCI  27
$$

WIZ051-052-058>065-066-070>072-210500-
SOUTHEAST WISCONSIN

CITY           SKY/WX    TMP DP  RH WIND       PRES   REMARKS
MILWAUKEE      CLOUDY    31  24  75 SW6       30.24S WCI  25
WAUKESHA       CLOUDY    28  27  93 S5        30.24S WCI  23
MILWAUKEE/TIMM CLOUDY    32  25  74 S6        30.24S WCI  26
RACINE         CLOUDY    32  25  75 S7        30.26S WCI  26
BURLINGTON     CLOUDY    29  25  85 CALM      30.23F
KENOSHA        CLOUDY    32  25  75 S5        30.24S WCI  27
FOND DU LAC    CLOUDY    30  26  85 S5        30.21F WCI  25
SHEBOYGAN      CLOUDY    29  25  85 CALM      30.22F
WEST BEND      CLOUDY    30  27  86 CALM      30.22S
JUNEAU         CLOUDY    29  27  92 SE5       30.22F FOG     WCI  24
$$

LSZ147-162-210500-
LAKE SUPERIOR

STATION/POSITION TIME  TEMP    WIND        PRES    WAVE
                       AIR SEA DIR/SP/G            HT/PER
                 (UTC) (F)     (DEG/KT/KT) (MB)    (FT/S)
DEVILS ISLAND    0300   32     200/  9/ 12 1020.6F
PORT WING        0300   32     170/  6/  8 1019.3
SAXON HARBOR     0300   32      CALM  /  6 1020.3R
$$

LMZ867-665-643>646-210500-
LAKE MICHIGAN

STATION/POSITION TIME  TEMP    WIND        PRES    WAVE
                       AIR SEA DIR/SP/G            HT/PER
                 (UTC) (F)     (DEG/KT/KT) (MB)    (FT/S)
CHAMBERS ISLAND  0300   28      CALM  /  1 1023.7S
NORTHPORT PIER   0300   30     200/  2/  5 1023.4F
SISTER BAY       0313             CALM       N/A
ALGOMA LAKESHORE 0214          320/  5/  6   N/A
KEWAUNEE LAKESHO 0300   26     290/  1/  5 1022.6F
SHEBOYGAN LAKESH 0300   31 34  240/  4/  4 1024.8F
PORT WASHINGTON  0340   31     240/  2/  4 1024.4F
MILWAUKEE LAKESH 0300   32     220/  4/  5   N/A
KENOSHA   LAKESH 0300   32     190/  3/  4 1024.4R
$$

TC  - TEMPERATURE IN CELSIUS
VSB - VISIBILITY IN STATUTE MILES
WCI - WIND CHILL INDEX
HX  - HEAT INDEX




USA.gov is the U.S. government's official web portal to all federal, state and local government web resources and services.